Date_and_time,latitude,longitude,wind_speed,RelWindDirFrom,WindDirFrom,air_pressure,air_temperature,relative_humidity,Temp,platform_speed_wrt_ground,air_pressure_at_mean_sea_level,platform_orientation
2019-08-13 23:40,50.6304516666667,-96.98078,8.8,10.5,1,991.03,22.5,39,21.17,0.0,1016.86,32.5
2019-08-13 23:50,50.630455,-96.9807833333333,8.4,10.5,3,991.03,22.5,42,21.19,0.0,1016.86,32.5
2019-08-14 00:00,50.630455,-96.980785,8.4,10.5,1,991.05,22.6,40,21.22,0.0,1016.87,90.0
2019-08-14 00:10,50.63046,-96.980785,8.0,10.4,2,991.05,22.5,41,21.22,0.0,1016.88,90.0
2019-08-14 00:20,50.6304566666667,-96.9807766666667,7.0,9.7,4,991.09,22.5,44,21.24,0.0,1016.91,90.0
2019-08-14 00:30,50.6304816666667,-96.9807883333333,8.1,9.5,7,991.01,22.5,45,21.25,0.0,1016.83,90.0
2019-08-14 00:40,50.6304466666667,-96.9807716666667,8.3,9.6,8,991.00,22.5,45,21.25,0.0,1016.82,90.0
2019-08-14 00:50,50.6304533333333,-96.9807766666667,7.9,9.4,3,991.01,22.5,46,21.27,0.0,1016.82,90.0
2019-08-14 01:00,50.6304583333333,-96.9807766666667,7.0,8.3,0,991.03,22.4,46,21.29,0.0,1016.84,90.0
2019-08-14 01:10,50.6304566666667,-96.9807783333333,6.3,8.3,354,991.07,22.1,46,21.30,0.0,1016.90,90.0
2019-08-14 01:20,50.630455,-96.9807766666667,4.8,6.4,345,991.12,21.8,47,21.30,0.0,1016.96,90.0
2019-08-14 01:30,50.630455,-96.9807766666667,3.9,5.1,335,991.12,21.5,46,21.30,0.0,1016.97,90.0
2019-08-14 01:40,50.630455,-96.9807766666667,3.5,4.6,333,991.13,21.3,47,21.30,0.0,1016.99,90.0
2019-08-14 01:50,50.6304533333333,-96.9807766666667,3.0,3.7,336,991.19,21.0,49,21.31,0.0,1017.06,90.0
2019-08-14 02:00,50.630455,-96.980795,3.1,3.9,330,991.21,20.7,50,21.32,0.0,1017.09,270.0
2019-08-14 02:10,50.6304466666667,-96.9807733333333,3.3,4.8,322,991.29,20.5,48,21.32,0.0,1017.19,270.0
2019-08-14 02:20,50.6304483333333,-96.9807733333333,4.1,5.8,311,991.37,20.3,45,21.32,0.0,1017.28,270.0
2019-08-14 02:30,50.6304516666667,-96.9807733333333,4.7,5.8,317,991.45,20.2,42,21.33,0.0,1017.37,270.0
2019-08-14 02:40,50.630435,-96.98078,4.8,6.1,309,991.55,19.9,42,21.33,0.0,1017.48,270.0
2019-08-14 02:50,50.6304483333333,-96.9807816666667,4.8,6.5,316,991.60,19.8,42,21.34,0.0,1017.54,270.0
2019-08-14 03:00,50.6304466666667,-96.9807633333333,5.1,7.2,328,991.62,19.8,41,21.34,0.0,1017.58,111.5
2019-08-14 03:10,50.630445,-96.9807716666667,5.1,6.3,330,991.65,19.6,41,21.33,0.0,1017.62,111.5
2019-08-14 03:20,50.630445,-96.9807683333333,5.2,6.9,316,991.71,19.4,41,21.32,0.0,1017.71,111.5
2019-08-14 03:30,50.630445,-96.9807683333333,4.6,7.2,324,991.75,18.7,44,21.30,0.0,1017.79,111.5
2019-08-14 03:40,50.6304433333333,-96.9807733333333,4.6,6.4,329,991.77,18.7,46,21.27,0.0,1017.82,111.5
2019-08-14 03:50,50.6304483333333,-96.9807716666667,4.0,6.4,314,991.86,18.4,46,21.25,0.0,1017.94,111.5
2019-08-14 04:00,50.6304516666667,-96.9807716666667,4.8,7.0,315,991.87,18.1,47,21.22,0.0,1017.97,142.0
2019-08-14 04:10,50.6304533333333,-96.9807733333333,4.4,6.8,325,991.89,18.1,48,21.21,0.0,1018.01,142.0
2019-08-14 04:20,50.6304533333333,-96.980775,4.2,5.7,328,991.90,18.4,49,21.19,0.0,1018.01,142.0
2019-08-14 04:30,50.6304533333333,-96.9807733333333,3.8,5.1,310,991.97,18.1,49,21.18,0.0,1018.10,142.0
2019-08-14 04:40,50.6304516666667,-96.980775,3.8,5.3,290,991.98,16.9,50,21.16,0.0,1018.18,142.0
2019-08-14 04:50,50.6304516666667,-96.980775,3.9,6.3,303,991.98,16.8,50,21.15,0.0,1018.19,142.0
2019-08-14 05:00,50.63045,-96.9807766666667,3.1,4.3,321,991.93,17.2,54,21.15,0.0,1018.12,90.0
2019-08-14 05:10,50.63045,-96.980775,3.0,4.0,320,991.94,17.3,55,21.13,0.0,1018.14,90.0
2019-08-14 05:20,50.63045,-96.9807766666667,2.8,4.0,307,991.94,17.0,55,21.12,0.0,1018.19,90.0
2019-08-14 05:30,50.63045,-96.9807766666667,3.2,5.0,304,991.96,16.1,56,21.11,0.0,1018.24,90.0
2019-08-14 05:40,50.6304516666667,-96.9807766666667,2.7,4.2,304,992.01,16.0,57,21.10,0.0,1018.31,90.0
2019-08-14 05:50,50.6304516666667,-96.9807783333333,3.5,4.7,290,992.03,15.0,58,21.10,0.0,1018.39,90.0
2019-08-14 06:00,50.6304516666667,-96.9807783333333,3.4,4.7,297,992.03,14.8,60,21.14,0.0,1018.40,293.6
2019-08-14 06:10,50.6304516666667,-96.9807783333333,3.4,5.0,307,992.04,15.3,61,21.17,0.0,1018.37,293.6
2019-08-14 06:20,50.6304533333333,-96.9807783333333,2.6,3.7,290,992.06,15.1,60,21.18,0.0,1018.42,293.6
2019-08-14 06:30,50.6304533333333,-96.98078,3.0,3.8,285,992.06,14.3,61,21.19,0.0,1018.51,293.6
2019-08-14 06:40,50.6304533333333,-96.98078,3.2,4.5,278,992.12,13.9,62,21.20,0.0,1018.60,293.6
2019-08-14 06:50,50.6304533333333,-96.98078,2.9,4.4,272,992.12,13.6,63,21.20,0.0,1018.58,293.6
2019-08-14 07:00,50.6304516666667,-96.9807883333333,2.3,3.9,274,992.07,13.3,64,21.21,0.0,1018.55,270.0
2019-08-14 07:10,50.63045,-96.9807883333333,2.3,3.4,282,992.07,13.2,65,21.19,0.0,1018.57,270.0
2019-08-14 07:20,50.6304533333333,-96.9807866666667,2.5,3.4,278,992.06,13.1,65,21.18,0.0,1018.61,270.0
2019-08-14 07:30,50.6304433333333,-96.9807383333333,2.3,2.9,283,991.98,13.1,66,21.16,0.0,1018.53,270.0
2019-08-14 07:40,50.6304166666667,-96.98079,2.9,4.6,267,991.93,12.9,66,21.16,0.0,1018.54,270.0
2019-08-14 07:50,50.6304383333333,-96.9807666666667,3.7,5.3,260,991.91,12.4,67,21.15,0.0,1018.54,270.0
2019-08-14 08:00,50.6304433333333,-96.98077,2.3,4.2,254,991.83,12.4,70,21.13,0.0,1018.43,360.0
2019-08-14 08:10,50.6304566666667,-96.9807716666667,3.4,5.0,264,991.76,12.3,68,21.12,0.0,1018.38,360.0
2019-08-14 08:20,50.63045,-96.9807866666667,3.7,4.5,261,991.73,12.1,68,21.10,0.0,1018.40,360.0
2019-08-14 08:30,50.6304483333333,-96.9807866666667,3.1,4.7,256,991.66,12.2,69,21.09,0.0,1018.35,360.0
2019-08-14 08:40,50.63043,-96.98079,2.7,4.5,258,991.62,12.3,70,21.09,0.0,1018.31,360.0
2019-08-14 08:50,50.63045,-96.98078,3.3,4.8,266,991.63,12.1,70,21.07,0.0,1018.34,360.0
2019-08-14 09:00,50.630465,-96.98076,3.0,4.8,265,991.61,12.0,71,21.04,0.0,1018.32,48.4
2019-08-14 09:10,50.6304616666667,-96.9807516666667,3.0,4.2,260,991.63,11.9,71,21.04,0.0,1018.36,48.4
2019-08-14 09:20,50.630435,-96.9807616666667,2.5,4.3,251,991.60,11.9,72,21.05,0.0,1018.33,48.4
2019-08-14 09:30,50.63046,-96.9807816666667,2.3,3.3,245,991.61,12.1,73,21.04,0.0,1018.34,48.4
2019-08-14 09:40,50.630455,-96.9807683333333,3.4,4.9,240,991.67,11.5,72,21.03,0.0,1018.46,48.4
2019-08-14 09:50,50.6304533333333,-96.9807783333333,4.4,5.8,253,991.68,11.1,73,21.03,0.0,1018.49,48.4
2019-08-14 10:00,50.6304533333333,-96.9807783333333,4.3,6.7,252,991.63,11.5,74,21.03,0.0,1018.41,90.0
2019-08-14 10:10,50.6304533333333,-96.9807783333333,6.1,7.3,253,991.62,11.5,74,21.01,0.0,1018.41,90.0
2019-08-14 10:20,50.6304533333333,-96.9807783333333,5.7,7.2,251,991.65,11.8,75,21.00,0.0,1018.43,90.0
2019-08-14 10:30,50.6304516666667,-96.9807766666667,5.1,6.7,236,991.68,11.5,76,20.99,0.0,1018.47,90.0
2019-08-14 10:40,50.6304483333333,-96.9807516666667,5.7,7.2,241,991.68,11.9,76,20.99,0.0,1018.46,90.0
2019-08-14 10:50,50.6304433333333,-96.9807766666667,6.5,8.2,247,991.64,12.2,75,20.98,0.0,1018.41,90.0
2019-08-14 11:00,50.630445,-96.9807816666667,6.5,8.1,246,991.68,11.9,75,20.97,0.0,1018.47,270.0
2019-08-14 11:10,50.6304483333333,-96.9807816666667,7.2,9.2,254,991.75,11.5,76,20.96,0.0,1018.56,270.0
2019-08-14 11:20,50.630465,-96.9807833333333,6.3,8.8,263,991.73,11.3,77,20.95,0.0,1018.54,270.0
2019-08-14 11:30,50.630465,-96.9807816666667,6.7,8.5,255,991.69,11.4,78,20.92,0.0,1018.52,270.0
2019-08-14 11:40,50.63046,-96.98078,7.0,9.4,249,991.71,12.0,76,20.90,0.0,1018.54,270.0
2019-08-14 11:50,50.63044,-96.9807733333333,6.0,8.2,248,991.67,12.1,77,20.88,0.0,1018.47,270.0
2019-08-14 12:00,50.6304433333333,-96.9807733333333,6.3,8.8,249,991.68,12.4,77,20.88,0.0,1018.46,360.0
2019-08-14 12:10,50.63043,-96.9807566666667,6.3,8.5,250,991.75,12.6,77,20.87,0.0,1018.52,360.0
2019-08-14 12:20,50.630465,-96.9807716666667,5.0,6.5,247,991.76,12.9,76,20.85,0.0,1018.52,360.0
2019-08-14 12:30,50.6304633333333,-96.9807733333333,5.2,7.2,240,991.65,13.2,75,20.83,0.0,1018.38,360.0
2019-08-14 12:40,50.6304383333333,-96.9807866666667,5.1,6.7,240,991.57,13.4,73,20.82,0.0,1018.27,360.0
2019-08-14 12:50,50.630455,-96.9807783333333,4.8,6.4,234,991.51,13.6,72,20.81,0.0,1018.21,360.0
2019-08-14 13:00,50.630455,-96.9807816666667,5.4,7.3,228,991.45,13.7,71,20.79,0.0,1018.17,0.0
2019-08-14 13:10,50.63046,-96.9807733333333,5.8,7.4,223,991.42,13.9,68,20.78,0.0,1018.14,0.0
2019-08-14 13:20,50.630465,-96.98077,6.4,8.3,226,991.38,14.4,62,20.77,0.0,1018.07,0.0
2019-08-14 13:30,50.6304633333333,-96.9807716666667,5.9,8.1,227,991.30,15.0,56,20.78,0.0,1017.93,0.0
2019-08-14 13:40,50.63046,-96.98077,5.9,8.1,227,991.28,15.5,53,20.77,0.0,1017.88,0.0
2019-08-14 13:50,50.63046,-96.9807683333333,5.4,7.5,221,991.23,15.8,52,20.76,0.0,1017.80,0.0
2019-08-14 14:00,50.6304783333333,-96.9808116666667,5.1,7.4,216,991.16,16.0,52,20.76,0.0,1017.71,349.8
2019-08-14 14:10,50.63046,-96.98078,5.4,7.2,222,991.14,16.1,54,20.75,0.0,1017.66,349.8
2019-08-14 14:20,50.630465,-96.980775,5.6,7.4,221,991.13,16.5,53,20.72,0.0,1017.63,349.8
2019-08-14 14:30,50.6304633333333,-96.980785,4.8,6.7,214,991.06,17.0,52,20.74,0.0,1017.52,349.8
2019-08-14 14:40,50.63047,-96.98077,4.9,6.4,199,991.02,17.6,50,20.73,0.0,1017.44,349.8
2019-08-14 14:50,50.6304633333333,-96.98079,4.9,6.7,186,990.94,18.0,51,20.71,0.0,1017.35,349.8
2019-08-14 15:00,50.6304583333333,-96.9807866666667,4.1,5.9,191,990.93,18.2,51,20.70,0.0,1017.31,328.9
2019-08-14 15:10,50.6304566666667,-96.9807833333333,4.8,6.7,208,990.93,18.4,50,20.70,0.0,1017.28,328.9
2019-08-14 15:20,50.630455,-96.9807816666667,4.4,6.4,210,990.95,18.8,51,20.72,0.0,1017.25,328.9
2019-08-14 15:30,50.630455,-96.98078,4.5,6.1,193,990.92,19.0,53,20.74,0.0,1017.19,328.9
2019-08-14 15:40,50.630455,-96.98078,4.5,6.2,174,990.85,19.4,53,20.75,0.0,1017.09,328.9
2019-08-14 15:50,50.6304533333333,-96.98078,3.7,6.7,154,990.75,20.0,51,20.78,0.0,1016.95,328.9
2019-08-14 16:00,50.630445,-96.980785,5.0,8.1,177,990.66,20.2,50,20.85,0.0,1016.84,360.0
2019-08-14 16:10,50.6304533333333,-96.98079,4.7,8.8,169,990.57,21.2,45,20.90,0.0,1016.69,360.0
2019-08-14 16:20,50.6304433333333,-96.9807766666667,6.4,11.3,154,990.46,20.7,47,20.95,0.0,1016.57,360.0
2019-08-14 16:30,50.6304433333333,-96.9807716666667,7.9,10.6,200,990.40,21.6,39,20.96,0.0,1016.45,360.0
2019-08-14 16:40,50.6304483333333,-96.9807716666667,6.4,9.2,202,990.37,21.8,39,20.97,0.0,1016.39,360.0
2019-08-14 16:50,50.6304483333333,-96.9807766666667,6.6,10.1,190,990.28,21.6,40,20.96,0.0,1016.29,360.0
2019-08-14 17:00,50.6304366666667,-96.9807633333333,6.6,10.7,179,990.21,21.5,41,21.01,0.0,1016.21,147.7
2019-08-14 17:10,50.630455,-96.980785,5.2,8.0,181,990.14,21.6,41,21.05,0.0,1016.12,147.7
2019-08-14 17:20,50.630455,-96.9807916666667,5.9,10.0,166,990.01,21.6,41,21.05,0.0,1015.98,147.7
2019-08-14 17:30,50.6304383333333,-96.9807883333333,4.9,7.3,157,989.90,22.0,40,21.05,0.0,1015.83,147.7
2019-08-14 17:40,50.6304516666667,-96.9807833333333,5.4,10.6,172,989.76,22.4,40,21.07,0.0,1015.64,147.7
2019-08-14 17:50,50.6304516666667,-96.9807883333333,5.8,9.6,217,989.69,22.6,36,21.07,0.0,1015.55,147.7
2019-08-14 18:00,50.63045,-96.9807866666667,7.0,10.7,202,989.55,23.0,34,21.08,0.0,1015.35,142.0
2019-08-14 18:10,50.63045,-96.9807866666667,6.4,14.6,158,989.52,22.0,50,21.07,0.0,1015.38,142.0
2019-08-14 18:20,50.63045,-96.9807866666667,5.9,10.5,202,989.48,22.0,38,21.06,0.0,1015.31,142.0
2019-08-14 18:30,50.6304866666667,-96.9807966666667,7.0,11.7,219,989.41,22.6,37,21.09,0.0,1015.20,142.0
2019-08-14 18:40,50.6304483333333,-96.9807766666667,4.9,9.3,225,989.31,22.9,33,21.10,0.0,1015.09,142.0
2019-08-14 18:50,50.630475,-96.9807716666667,3.9,9.0,258,989.20,23.3,31,21.13,0.0,1014.96,142.0
2019-08-14 19:00,50.6304433333333,-96.9807583333333,5.8,9.2,334,989.11,23.0,36,21.10,0.0,1014.87,90.0
2019-08-14 19:10,50.6304433333333,-96.9807833333333,3.6,6.7,324,989.04,22.9,37,21.12,0.0,1014.81,90.0
2019-08-14 19:20,50.63044,-96.980785,1.7,5.0,273,988.95,23.0,34,21.13,0.0,1014.70,90.0
2019-08-14 19:30,50.6304433333333,-96.9808,0.9,3.5,140,988.89,23.6,37,21.11,0.0,1014.59,90.0
2019-08-14 19:40,50.630435,-96.98078,3.4,7.5,153,988.83,22.7,43,21.08,0.0,1014.56,90.0
2019-08-14 19:50,50.6304383333333,-96.9807866666667,5.5,10.4,207,988.64,22.8,35,21.04,0.0,1014.34,90.0
2019-08-14 20:00,50.6304233333333,-96.9808,3.0,4.9,183,988.47,23.2,32,21.02,0.0,1014.20,245.1
2019-08-14 20:10,50.6304366666667,-96.9807883333333,3.6,10.5,245,988.30,24.3,30,21.01,0.0,1013.97,245.1
2019-08-14 20:20,50.630445,-96.9807816666667,6.9,11.5,225,988.28,24.0,31,21.09,0.0,1013.94,245.1
2019-08-14 20:30,50.6304466666667,-96.98078,7.3,12.7,219,988.14,24.1,29,21.25,0.0,1013.78,245.1
2019-08-14 20:40,50.630445,-96.9807766666667,7.6,13.0,242,988.07,24.4,29,21.41,0.0,1013.67,245.1
2019-08-14 20:50,50.6304483333333,-96.98078,8.3,13.4,220,987.93,24.1,29,21.45,0.0,1013.56,245.1
2019-08-14 21:00,50.6304483333333,-96.980785,4.8,10.1,248,987.81,24.3,30,21.49,0.0,1013.44,167.4
2019-08-14 21:10,50.63045,-96.9807833333333,7.3,15.7,233,987.74,24.3,30,21.54,0.0,1013.35,167.4
2019-08-14 21:20,50.63044,-96.9807666666667,9.2,14.3,228,987.70,24.3,29,21.55,0.0,1013.29,167.4
2019-08-14 21:30,50.63046,-96.98079,7.7,13.4,251,987.68,24.3,30,21.55,0.0,1013.31,167.4
2019-08-14 21:40,50.6304566666667,-96.9807766666667,9.2,13.5,230,987.68,24.2,30,21.54,0.0,1013.30,167.4
2019-08-14 21:50,50.630455,-96.980775,8.4,14.0,228,987.58,24.2,30,21.55,0.0,1013.19,167.4
2019-08-14 22:00,50.630455,-96.9807766666667,8.3,13.1,247,987.52,24.2,31,21.57,0.0,1013.07,323.4
2019-08-14 22:10,50.630455,-96.9807783333333,7.3,14.5,249,987.44,24.2,31,21.60,0.0,1013.01,323.4
2019-08-14 22:20,50.6304516666667,-96.980775,9.5,14.8,224,987.35,24.0,33,21.60,0.0,1012.92,323.4
2019-08-14 22:30,50.63045,-96.980775,10.1,16.1,234,987.29,24.4,31,21.59,0.0,1012.83,323.4
2019-08-14 22:40,50.63044,-96.9807766666667,10.7,18.4,226,987.24,24.1,33,21.59,0.0,1012.80,323.4
2019-08-14 22:50,50.6304483333333,-96.9807833333333,10.2,15.0,228,987.23,23.8,33,21.60,0.0,1012.80,323.4
2019-08-14 23:00,50.6304466666667,-96.9807866666667,9.2,14.0,229,987.18,23.8,34,21.60,0.0,1012.75,27.6
2019-08-14 23:10,50.6304483333333,-96.98078,9.7,13.4,225,987.13,23.7,35,21.61,0.0,1012.70,27.6
2019-08-14 23:20,50.6304516666667,-96.98079,9.4,13.9,226,987.08,23.6,35,21.60,0.0,1012.65,27.6
2019-08-14 23:30,50.63045,-96.9807866666667,8.2,12.3,231,987.04,23.9,35,21.58,0.0,1012.60,27.6
2019-08-14 23:40,50.63045,-96.9807866666667,8.8,13.1,225,986.99,24.0,35,21.56,0.0,1012.55,27.6
2019-08-14 23:50,50.6304516666667,-96.980785,5.9,9.4,227,986.91,24.0,35,21.55,0.0,1012.47,27.6
